Location: Kuppenheim
(48.8299°N, 8.2568°E)
Time: 07:49:38
(UTC+00:00)

ERBS - Pass Details

Date: 30 October 2021
Orbit: 393 x 407 km, 57.0° (Epoch: 30 November)

Event Time Altitude Azimuth Distance (km) Brightness Sun altitude
Exits shadow 04:31:31 43° 307° (NW) 583 2.5 -16.8°
Maximum altitude 04:31:55 46° 332° (NNW) 557 2.6 -16.7°
Drops below altitude 10° 04:35:06 10° 47° (NE) 1,472 5.6 -16.2°
Sets 04:37:14 0° 54° (NE) 2,339 6.9 -15.8°
